Regional Weather Roundup
Issued by NWS

Home | Current Version | Previous Version | Text Only | Print | Product List | Glossary Off
Versions: 1 2 3 4 5 6 7 8 9 10 11 12 13 14 15 16 17 18 19 20 21 22 23 24 25 26 27 28 29 30 31 32 33 34 35 36 37 38 39 40 41 42 43 44 45 46 47 48 49 50

000
ASUS43 KMPX 191301
RWRMN
WEATHER ROUNDUP FOR MINNESOTA
NATIONAL WEATHER SERVICE TWIN CITIES/CHANHASSEN MN
700 AM CST MON FEB 19 2018


NOTE: "FAIR" INDICATES FEW OR NO CLOUDS BELOW 12,000 FEET WITH NO
SIGNIFICANT WEATHER AND/OR OBSTRUCTIONS TO VISIBILITY. N/A MEANS
CURRENT SKY AND/OR WEATHER CONDITIONS ARE NOT AVAILABLE.

MNZ060>063-068>070-191400-
   Twin Cities Metro

CITY           SKY/WX    TMP DP  RH WIND       PRES   REMARKS
TWIN CITIES    CLOUDY    20  16  84 N18       29.88R WCI   5
ST PAUL        CLOUDY    22  17  81 N12G23    29.90R WCI  10
CRYSTAL        CLOUDY    19  12  74 N15G23    29.90R WCI   5
BLAINE         CLOUDY    19  16  86 N16G22    29.90R WCI   5
LAKEVILLE      CLOUDY    19  18  93 N12G20    29.84S WCI   7
EDEN PRAIRIE   CLOUDY    20  14  77 N20G26    29.85F WCI   4
SOUTH ST PAUL  CLOUDY    23  18  81 N10G17    29.87R WCI  12
LAKE ELMO      CLOUDY    23  19  86 N9        29.89R WCI  13
$$
MNZ001>005-007-008-013>017-022>024-027-028-191400-
   Northwest Minnesota

CITY           SKY/WX    TMP DP  RH WIND       PRES   REMARKS
BEMIDJI        FAIR       4  -2  77 N8        30.09R WCI  -9
HALLOCK        FAIR      -6 -11  77 N7        30.26R WCI -20
WARROAD        FAIR      -2  -9  71 N9        30.20R WCI -18
THIEF RVR FALL FAIR       0  -6  76 N14       30.20R WCI -19
CROOKSTON      FAIR       1  -6  71 N13       30.22S WCI -16
FOSSTON        FAIR       1  -4  78 N12       30.13R WCI -15
DETROIT LAKES  FAIR       9   3  78 N7        30.08R WCI  -3
MOORHEAD       FAIR       3  -2  78 N18       30.15R WCI -17
PARK RAPIDS    CLOUDY     5  -1  76 N12G20    30.04R WCI -11
MAHNOMEN       FAIR       5  -1  74 NE13      30.10R WCI -11
$$
MNZ006-009>011-018-025>026-191400-
   North Central Minnesota

CITY           SKY/WX    TMP DP  RH WIND       PRES   REMARKS
BAUDETTE       FAIR      -3  -8  79 N6        30.17R WCI -15
FLAG ISLAND    FAIR      -8 -13  77 N3        30.21R
INTL FALLS     FAIR       2  -2  83 N5        30.15R WCI  -8
WASKISH        FAIR       3   0  85 N6        30.15R WCI  -8
BIG FORK       FAIR       5   0  78 NE8       30.08F WCI  -8
LONGVILLE      MOCLDY     5   0  78 NE5       30.05S WCI  -4
GRAND RAPIDS   CLOUDY     4  -1  80 N8        30.06F WCI  -9
CRANE LAKE     FAIR       1  -2  85 N3        30.16R
ORR            FAIR       3  -4  72 CALM      30.08R
COOK           CLOUDY     3  -2  78 N5        30.09R WCI  -6
WALKER         CLOUDY     4  -1  77 N9        30.07R WCI -10
$$
MNZ012-019>021-037-191400-
   Northeast Minnesota

CITY           SKY/WX    TMP DP  RH WIND       PRES   REMARKS
DULUTH         CLOUDY    10   3  73 N12       30.00R WCI  -5
ELY            FAIR       1  -4  78 N6        30.08R WCI -10
HIBBING        CLOUDY     3  -2  79 N9        30.05R WCI -12
EVELETH        FAIR     N/A N/A N/A NE12      30.06R
DULUTH HARBOR  CLOUDY    18  10  73 N18       30.06R WCI   2
TWO HARBORS    MOCLDY    16   7  67 N7        30.01R WCI   6
G MARAIS ARPRT FAIR       0  -8  71 N17G25    29.96R WCI -21
$$
MNZ029>031-032-039>041-046>048-054>057-064-191400-
   West Central Minnesota

CITY           SKY/WX    TMP DP  RH WIND       PRES   REMARKS
FERGUS FALLS   FLURRIES   9   1  72 N9        30.07R WCI  -5
WHEATON        LGT SNOW   9   3  78 N17       30.09S WCI -10
MORRIS         LGT SNOW  10   7  85 N16       30.00F WCI  -7
ALEXANDRIA     LGT SNOW  11   6  81 N17       30.00R WCI  -6
ELBOW LAKE     LGT SNOW  10   5  79 E13       30.05R WCI  -5
WADENA         MOCLDY     7   1  78 N9        30.03R WCI  -7
GLENWOOD       LGT SNOW  10   7  85 N15       29.97F WCI  -6
APPLETON       LGT SNOW  14   9  79 N18G25    29.99F WCI  -3
BENSON         LGT SNOW  12   9  85 NE16G23   30.00S WCI  -4
MADISON        LGT SNOW  14  10  85 N21       29.99S WCI  -4
WILLMAR        CLOUDY    14  10  85 N21       29.96R WCI  -4
$$
MNZ033>034-036-042>043-049>051-058-059-191400-
   Central Minnesota

CITY           SKY/WX    TMP DP  RH WIND       PRES   REMARKS
ST CLOUD       LGT SNOW  12   9  87 N12       29.98R FOG     WCI  -2
SAUK CENTRE    LGT SNOW  10   7  85 N12       29.99R WCI  -4
PAYNESVILLE    LGT SNOW  13  10  90 N9G18     29.97R WCI   0
AITKIN         CLOUDY     7   1  78 N9        30.01R WCI  -7
PINE RIVER     CLOUDY     7   0  72 N10       30.07R WCI  -8
BRAINERD       CLOUDY    10   1  67 N13       30.03R WCI  -5
STAPLES        CLOUDY     9   1  72 N8        30.03R WCI  -4
LONG PRAIRIE   FAIR      10   5  79 NW14G21   29.99S WCI  -5
LITTLE FALLS   LGT SNOW  12   3  67 N7        30.01R WCI   2
LITCHFIELD     CLOUDY    16  10  79 N15G23    29.92F WCI   1
BUFFALO        CLOUDY    16  11  80 N13G18    29.94R WCI   2
MAPLE LAKE     CLOUDY    16  12  84 N16G22    29.95R WCI   0
HUTCHINSON     CLOUDY    17  12  80 N13G22    29.89R WCI   4
$$
MNZ037-044-045-052-053-191400-
   East Central Minnesota

CITY           SKY/WX    TMP DP  RH WIND       PRES   REMARKS
PRINCETON      CLOUDY    16  10  79 N12G20    29.95R WCI   3
MORA           LGT SNOW  12  10  92 N6        29.98R WCI   3
CAMBRIDGE      FLURRIES  18   9  68 N8G16     29.95R WCI   7
RUSH CITY      CLOUDY    16  11  83 N13G21    29.96R WCI   2
MOOSE LAKE     FLURRIES  12   5  73 N8G16     29.99S WCI   1
HINCKLEY       LGT SNOW  14  12  92 N16       29.95S WCI  -2
CLOQUET        CLOUDY    10   1  67 N9        30.00S WCI  -2
MCGREGOR       CLOUDY    10   3  72 N12       30.02R WCI  -4
$$
MNZ071>073-080-081-089-090-097-098-191400-
   Southwest Minnesota

CITY           SKY/WX    TMP DP  RH WIND       PRES   REMARKS
MONTEVIDEO     LGT SNOW  14  10  85 NE20      29.96S WCI  -3
GRANITE FALLS  CLOUDY    17  12  81 N18G28    29.96R WCI   1
CANBY          LGT SNOW  12   9  85 N18G25    29.97F WCI  -5
MARSHALL       CLOUDY    14  10  84 N24       29.91S WCI  -5
REDWOOD FALLS  CLOUDY    16  10  77 N17G31    29.90R WCI   0
OLIVIA         MOCLDY    18  12  79 N22       29.90S WCI   0
PIPESTONE      CLOUDY    12   7  79 NE17G28   29.84S WCI  -5
WINDOM         LGT SNOW  16   3  57 N23G30    29.83R WCI  -2
WORTHINGTON    LGT SNOW  15  13  91 MISG      29.81S FOG
JACKSON        MIX PCPN  18  14  86 VRB17G24  29.80R WCI   2
TRACY          CLOUDY    17  13  85 N22G28    29.88R WCI  -1
SLAYTON        LGT SNOW  14  12  89 N25G32    29.84R WCI  -5
$$
MNZ065>067-074>077-082>085-091>093-191400-
   South Central Minnesota

CITY           SKY/WX    TMP DP  RH WIND       PRES   REMARKS
NEW ULM        CLOUDY    18  12  79 N12G23    29.86R WCI   5
ST JAMES       CLOUDY    19  18  93 N22G28    29.85R FOG     WCI   3
FAIRMONT       MIX PCPN  22  19  89 MISG      29.79F FOG
GLENCOE        CLOUDY    19  14  84 N17G25    29.88R WCI   3
FARIBAULT      CLOUDY    25  19  80 N16       29.81S WCI  12
OWATONNA       MIX PCPN  25  21  86 N20G25    29.78R WCI  11
WASECA         CLOUDY    25  21  86 N18G24    29.80R WCI  11
ALBERT LEA     MIX PCPN  27  23  86 N13       29.77R WCI  16
$$
MNZ078>079-086>088-094>096-191400-
   Southeast Minnesota

CITY           SKY/WX    TMP DP  RH WIND       PRES   REMARKS
ROCHESTER      CLOUDY    27  25  92 N12       29.76R WCI  17
RED WING       CLOUDY    28  21  74 N6        29.83S WCI  22
STANTON        CLOUDY    26  22  85 N15       29.81F WCI  14
DODGE CENTER   CLOUDY    25  21  86 N13       29.77R WCI  13
WINONA         CLOUDY    32  30  93 NW6       29.77S WCI  26
AUSTIN         CLOUDY    27  25  93 N12       29.75R WCI  16
PRESTON        CLOUDY    32  28  88 N6        29.75S WCI  26
$$
ABBREVIATIONS USED IN REMARKS
   TC - TEMPERATURES IN CELSIUS
  WCI - WIND CHILL INDEX
   HX - HEAT INDEX
  VSB - VISIBILITY
$$




USA.gov is the U.S. government's official web portal to all federal, state and local government web resources and services.